Weather History for KHVS - August, 2013

Change the Weather History Date:

Saturday, August 17, 2013

  Actual Average (KFLO) Record (KFLO)
Temperature  
Mean Temperature 68 °F 80 °F  
Max Temperature 71 °F 89 °F 106 °F (1954)
Min Temperature 64 °F 71 °F 54 °F (1979)
Degree Days  
Heating Degree Days 0 0  
Month to date heating degree days 0  
Since 1 June heating degree days 1  
Since 1 July heating degree days 0  
Cooling Degree Days 2 15  
Month to date cooling degree days 265  
Year to date cooling degree days 1471  
Since 1 June cooling degree days 1164  
Growing Degree Days 18 (Base 50)    
Moisture  
Dew Point 70 °F    
Average Humidity 99    
Maximum Humidity 100    
Minimum Humidity 94    
Precipitation  
Precipitation 0.00 in 0.17 in 1.95 in (1971)
Month to date precipitation 2.95  
Year to date precipitation 28.19  
Sea Level Pressure  
Sea Level Pressure 30.13 in    
Wind  
Wind Speed 5 mph (NNE)    
Max Wind Speed 13 mph    
Max Gust Speed 18 mph    
Visibility 8 miles    
Events      
T = Trace of Precipitation, MM = Missing Value Source: NWS Daily Summary

Daily Weather History Graph

Daily Weather History Graph

Search for Another Location

Airport or City:

Trip Planner

Search our weather history database for the weather conditions in past years. The results will help you decide how hot, cold, wet, or windy it might be!

Date:

Astronomy

Aug. 17, 2013 Rise Set
Actual Time 6:43 AM EDT 8:05 PM EDT
Civil Twilight 6:16 AM EDT 8:31 PM EDT
Nautical Twilight 5:44 AM EDT 9:03 PM EDT
Astronomical Twilight 5:11 AM EDT 9:36 PM EDT
Moon 5:15 PM EDT (8/17) 2:49 AM EDT (8/17)
Length of Visible Light 14h 15m
Length of Day
13h 22m
Waxing Gibbous, 84% of the Moon is Illuminated
Aug 17
Waxing Gibbous
Aug 20
Full
Aug 28
Last Quarter
Sep 5
New
Sep 12
First Quarter

Hourly Weather History & Observations

Time (EDT) Temp. Dew Point Humidity Pressure Visibility Wind Dir Wind Speed Gust Speed Precip Events Conditions
12:15 AM 66.2 °F - N/A% 30.14 in 7.0 mi NNE 6.9 mph - N/A   Overcast
12:35 AM 66.2 °F - N/A% 30.14 in 10.0 mi NE 9.2 mph - N/A   Overcast
12:55 AM 66.2 °F - N/A% 30.12 in 10.0 mi NE 9.2 mph - N/A   Overcast
1:15 AM 66.2 °F - N/A% 30.12 in 10.0 mi NNE 9.2 mph - N/A   Overcast
1:35 AM 66.2 °F - N/A% 30.12 in 10.0 mi NNE 5.8 mph - N/A   Overcast
1:55 AM 66.2 °F - N/A% 30.11 in 10.0 mi NNE 5.8 mph - N/A   Overcast
2:15 AM 66.2 °F - N/A% 30.12 in 10.0 mi Calm Calm - N/A   Overcast
2:35 AM 66.2 °F - N/A% 30.11 in 3.0 mi NNE 6.9 mph - N/A   Overcast
2:55 AM 64.4 °F - N/A% 30.11 in 1.5 mi Calm Calm - N/A   Overcast
3:15 AM 64.4 °F - N/A% 30.12 in 4.0 mi Calm Calm - N/A   Overcast
3:35 AM 64.4 °F - N/A% 30.11 in 4.0 mi NNE 9.2 mph - N/A   Overcast
3:55 AM 64.4 °F - N/A% 30.10 in 7.0 mi North 6.9 mph - N/A   Overcast
4:15 AM 64.4 °F - N/A% 30.10 in 7.0 mi NNE 6.9 mph - N/A   Overcast
4:35 AM 64.4 °F - N/A% 30.10 in 5.0 mi North 8.1 mph - N/A   Overcast
4:55 AM 64.4 °F - N/A% 30.10 in 4.0 mi North 6.9 mph - N/A   Overcast
5:15 AM 64.4 °F - N/A% 30.11 in 7.0 mi North 5.8 mph - N/A   Overcast
5:35 AM 64.4 °F - N/A% 30.10 in 5.0 mi North 8.1 mph - N/A   Overcast
5:55 AM 64.4 °F - N/A% 30.11 in 4.0 mi North 8.1 mph - N/A   Overcast
6:15 AM 64.4 °F - N/A% 30.11 in 7.0 mi NNE 9.2 mph 16.1 mph N/A   Overcast
6:35 AM 64.4 °F - N/A% 30.11 in 7.0 mi NNE 9.2 mph - N/A   Overcast
6:55 AM 64.4 °F - N/A% 30.12 in 5.0 mi NNE 5.8 mph - N/A   Overcast
7:15 AM 64.4 °F - N/A% 30.12 in 5.0 mi North 5.8 mph - N/A   Overcast
7:35 AM 64.4 °F - N/A% 30.12 in 4.0 mi North 6.9 mph - N/A   Overcast
7:55 AM 64.4 °F - N/A% 30.12 in 4.0 mi North 5.8 mph - N/A   Overcast
8:15 AM 64.4 °F - N/A% 30.12 in 4.0 mi North 8.1 mph - N/A   Overcast
8:35 AM 64.4 °F - N/A% 30.12 in 4.0 mi North 10.4 mph - N/A   Overcast
8:55 AM 64.4 °F - N/A% 30.13 in 4.0 mi North 12.7 mph 18.4 mph N/A   Overcast
9:15 AM 64.4 °F - N/A% 30.14 in 5.0 mi NNE 9.2 mph - N/A   Overcast
9:35 AM 66.2 °F - N/A% 30.15 in 7.0 mi North 4.6 mph - N/A   Overcast
9:55 AM 66.2 °F - N/A% 30.14 in 7.0 mi NNE 6.9 mph - N/A   Overcast
10:15 AM 66.2 °F - N/A% 30.14 in 10.0 mi NNE 9.2 mph - N/A   Overcast
10:35 AM 68.0 °F - N/A% 30.15 in 10.0 mi North 8.1 mph - N/A   Overcast
10:55 AM 68.0 °F - N/A% 30.15 in 10.0 mi NNE 10.4 mph - N/A   Overcast
11:15 AM 68.0 °F - N/A% 30.15 in 10.0 mi NNE 5.8 mph 9.2 mph N/A   Overcast
11:35 AM 68.0 °F 68.0 °F 100% 30.16 in 10.0 mi NNE 6.9 mph - N/A   Overcast
11:55 AM 68.0 °F 68.0 °F 100% 30.16 in 7.0 mi NNE 5.8 mph - N/A   Overcast
12:15 PM 68.0 °F 68.0 °F 100% 30.15 in 10.0 mi NNE 6.9 mph - N/A   Overcast
12:35 PM 68.0 °F 68.0 °F 100% 30.16 in 10.0 mi Calm Calm - N/A   Overcast
12:55 PM 68.0 °F 68.0 °F 100% 30.16 in 10.0 mi Calm Calm - N/A   Overcast
1:15 PM 69.8 °F 69.8 °F 100% 30.15 in 10.0 mi NNE 3.5 mph - N/A   Overcast
1:35 PM 69.8 °F 69.8 °F 100% 30.15 in 10.0 mi Calm Calm - N/A   Overcast
1:55 PM 69.8 °F 69.8 °F 100% 30.15 in 10.0 mi Calm Calm - N/A   Overcast
2:15 PM 69.8 °F 69.8 °F 100% 30.14 in 10.0 mi Calm Calm - N/A   Overcast
2:35 PM 69.8 °F 69.8 °F 100% 30.14 in 7.0 mi North 3.5 mph - N/A   Overcast
2:55 PM 69.8 °F 69.8 °F 100% 30.13 in 10.0 mi Calm Calm - N/A   Overcast
3:15 PM 69.8 °F 69.8 °F 100% 30.13 in 10.0 mi Calm Calm - N/A   Overcast
3:35 PM 69.8 °F 69.8 °F 100% 30.13 in 10.0 mi Calm Calm - N/A   Overcast
3:55 PM 71.6 °F 69.8 °F 94% 30.13 in 10.0 mi Calm Calm - N/A   Overcast
4:15 PM 71.6 °F 69.8 °F 94% 30.12 in 10.0 mi Calm Calm - N/A   Overcast
4:35 PM 71.6 °F 69.8 °F 94% 30.12 in 10.0 mi Calm Calm - N/A   Overcast
4:55 PM 71.6 °F 69.8 °F 94% 30.11 in 10.0 mi North 5.8 mph - N/A   Overcast
5:15 PM 71.6 °F 69.8 °F 94% 30.12 in 7.0 mi Calm Calm - N/A   Overcast
5:35 PM 71.6 °F 71.6 °F 100% 30.13 in 10.0 mi Calm Calm - N/A   Overcast
5:55 PM 71.6 °F 71.6 °F 100% 30.13 in 10.0 mi Calm Calm - N/A   Overcast
6:15 PM 71.6 °F 71.6 °F 100% 30.13 in 10.0 mi Calm Calm - N/A   Overcast
6:35 PM 71.6 °F 71.6 °F 100% 30.13 in 10.0 mi Calm Calm - N/A   Overcast
6:55 PM 71.6 °F 71.6 °F 100% 30.14 in 10.0 mi Calm Calm - N/A   Overcast
7:15 PM 71.6 °F 71.6 °F 100% 30.13 in 10.0 mi Calm Calm - N/A   Overcast
7:35 PM 71.6 °F 71.6 °F 100% 30.13 in 10.0 mi Calm Calm - N/A   Overcast
7:55 PM 71.6 °F 71.6 °F 100% 30.14 in 10.0 mi Calm Calm - N/A   Overcast
8:15 PM 71.6 °F 71.6 °F 100% 30.14 in 10.0 mi Calm Calm - N/A   Overcast
8:35 PM 71.6 °F 71.6 °F 100% 30.15 in 10.0 mi Calm Calm - N/A   Overcast
8:55 PM 69.8 °F 69.8 °F 100% 30.13 in 10.0 mi North 6.9 mph - N/A   Overcast
9:15 PM 69.8 °F 69.8 °F 100% 30.15 in 10.0 mi Calm Calm - N/A   Overcast
9:35 PM 69.8 °F - N/A% 30.16 in 10.0 mi Calm Calm - N/A   Overcast
9:55 PM 69.8 °F - N/A% 30.17 in 10.0 mi Calm Calm - N/A   Overcast
10:15 PM 69.8 °F - N/A% 30.17 in 10.0 mi Calm Calm - N/A   Overcast
10:35 PM 69.8 °F - N/A% 30.17 in 10.0 mi Calm Calm - N/A   Overcast
10:55 PM 69.8 °F - N/A% 30.17 in 10.0 mi Calm Calm - N/A   Overcast
11:15 PM 69.8 °F - N/A% 30.17 in 10.0 mi Calm Calm - N/A   Overcast
11:35 PM 69.8 °F - N/A% 30.17 in 10.0 mi Calm Calm - N/A   Overcast
11:55 PM 69.8 °F - N/A% 30.17 in 10.0 mi Calm Calm - N/A   Overcast